When you browse on this site, cookies collect data to enhance your experience and personalize the content and advertising you see.
Visit our Privacy Policy to learn more. By continuing to use the site, you agree to this use of cookies and data.
  • In Slovakia
  • List of Countries
  • For 7 days
  • Water Temperature
  • Weather Map
  • Weather Widgets
  • user-avatar
    Login

    Hourly Weather Zaranj

    Today, 22 September, Sunday

    Time Temperature Precipitation Wind Pressure Humidity
    00:00 +28°C° 0 mm 2 mps 713 mmHg 15%
    01:00 +27°C° 0 mm 2 mps 713 mmHg 16%
    02:00 +27°C° 0 mm 2 mps 713 mmHg 17%
    03:00 +27°C° 0 mm 2 mps 713 mmHg 19%
    04:00 +26°C° 0 mm 2 mps 713 mmHg 23%
    05:00 +27°C° 0 mm 2 mps 713 mmHg 22%
    06:00 +28°C° 0 mm 2 mps 714 mmHg 20%
    07:00 +29°C° 0 mm 2 mps 715 mmHg 18%
    08:00 +32°C° 0 mm 2 mps 715 mmHg 15%
    09:00 +36°C° 0 mm 2 mps 715 mmHg 12%
    10:00 +39°C° 0 mm 2 mps 716 mmHg 9%
    11:00 +40°C° 0 mm 2 mps 716 mmHg 8%
    12:00 +42°C° 0 mm 2 mps 715 mmHg 7%
    13:00 +43°C° 0 mm 1 mps 715 mmHg 6%
    14:00 +43°C° 0 mm 2 mps 715 mmHg 5%
    15:00 +43°C° 0 mm 2 mps 714 mmHg 5%
    16:00 +45°C° 0 mm 2 mps 714 mmHg 4%
    17:00 +40°C° 0 mm 2 mps 714 mmHg 5%
    18:00 +36°C° 0 mm 2 mps 713 mmHg 6%
    19:00 +32°C° 0 mm 2 mps 713 mmHg 8%
    20:00 +33°C° 0 mm 4 mps 714 mmHg 10%
    21:00 +33°C° 0 mm 5 mps 714 mmHg 13%
    22:00 +33°C° 0 mm 7 mps 715 mmHg 16%
    23:00 +31°C° 0 mm 10 mps 715 mmHg 25%

    Tomorrow, 23 September, Monday

    Time Temperature Precipitation Wind Pressure Humidity
    00:00 +29°C° 0 mm 12 mps 716 mmHg 35%
    01:00 +27°C° 0 mm 15 mps 716 mmHg 45%
    02:00 +26°C° 0 mm 15 mps 716 mmHg 46%
    03:00 +24°C° 0 mm 15 mps 716 mmHg 47%
    04:00 +23°C° 0 mm 14 mps 716 mmHg 48%
    05:00 +23°C° 0 mm 14 mps 717 mmHg 47%
    06:00 +23°C° 0 mm 13 mps 717 mmHg 47%
    07:00 +23°C° 0 mm 12 mps 718 mmHg 47%
    08:00 +26°C° 0 mm 12 mps 718 mmHg 42%
    09:00 +28°C° 0 mm 11 mps 718 mmHg 37%
    10:00 +31°C° 0 mm 11 mps 718 mmHg 31%
    11:00 +33°C° 0 mm 10 mps 718 mmHg 28%
    12:00 +34°C° 0 mm 8 mps 717 mmHg 24%
    13:00 +36°C° 0 mm 7 mps 717 mmHg 21%
    14:00 +38°C° 0 mm 6 mps 716 mmHg 19%
    15:00 +38°C° 0 mm 6 mps 716 mmHg 18%
    16:00 +39°C° 0 mm 5 mps 716 mmHg 17%
    17:00 +36°C° 0 mm 5 mps 715 mmHg 22%
    18:00 +33°C° 0 mm 5 mps 715 mmHg 28%
    19:00 +30°C° 0 mm 5 mps 715 mmHg 33%
    20:00 +30°C° 0 mm 5 mps 716 mmHg 34%
    21:00 +29°C° 0 mm 6 mps 716 mmHg 36%
    22:00 +28°C° 0 mm 6 mps 716 mmHg 37%
    23:00 +28°C° 0 mm 6 mps 716 mmHg 38%

    Day after tomorrow, 24 September, Tuesday

    Time Temperature Precipitation Wind Pressure Humidity
    00:00 +27°C° 0 mm 5 mps 716 mmHg 40%
    01:00 +26°C° 0 mm 5 mps 715 mmHg 41%
    02:00 +25°C° 0 mm 5 mps 715 mmHg 43%
    03:00 +25°C° 0 mm 4 mps 715 mmHg 44%
    04:00 +23°C° 0 mm 4 mps 715 mmHg 45%
    05:00 +25°C° 0 mm 4 mps 715 mmHg 44%
    06:00 +25°C° 0 mm 5 mps 716 mmHg 42%
    07:00 +25°C° 0 mm 5 mps 716 mmHg 41%
    08:00 +28°C° 0 mm 5 mps 717 mmHg 35%
    09:00 +30°C° 0 mm 4 mps 717 mmHg 28%
    10:00 +34°C° 0 mm 4 mps 717 mmHg 22%
    11:00 +36°C° 0 mm 3 mps 717 mmHg 19%
    12:00 +37°C° 0 mm 2 mps 716 mmHg 16%
    13:00 +39°C° 0 mm 1 mps 716 mmHg 13%
    14:00 +40°C° 0 mm 1 mps 715 mmHg 11%
    15:00 +40°C° 0 mm 1 mps 715 mmHg 10%
    16:00 +41°C° 0 mm 1 mps 715 mmHg 8%
    17:00 +36°C° 0 mm 1 mps 714 mmHg 11%
    18:00 +33°C° 0 mm 1 mps 714 mmHg 14%
    19:00 +29°C° 0 mm 1 mps 714 mmHg 16%
    20:00 +28°C° 0 mm 1 mps 714 mmHg 17%
    21:00 +27°C° 0 mm 1 mps 714 mmHg 18%
    22:00 +26°C° 0 mm 1 mps 714 mmHg 18%
    23:00 +27°C° 0 mm 2 mps 714 mmHg 21%

    25 September, Wednesday

    Time Temperature Precipitation Wind Pressure Humidity
    00:00 +28°C° 0 mm 4 mps 714 mmHg 23%
    01:00 +28°C° 0 mm 5 mps 714 mmHg 26%
    02:00 +28°C° 0 mm 6 mps 714 mmHg 27%
    03:00 +27°C° 0 mm 7 mps 715 mmHg 29%
    04:00 +26°C° 0 mm 7 mps 715 mmHg 30%
    05:00 +27°C° 0 mm 7 mps 715 mmHg 29%
    06:00 +27°C° 0 mm 7 mps 716 mmHg 28%
    07:00 +27°C° 0 mm 7 mps 716 mmHg 27%
    08:00 +29°C° 0 mm 7 mps 717 mmHg 23%
    09:00 +33°C° 0 mm 6 mps 717 mmHg 19%
    10:00 +35°C° 0 mm 6 mps 718 mmHg 15%
    11:00 +37°C° 0 mm 4 mps 717 mmHg 13%
    12:00 +39°C° 0 mm 3 mps 717 mmHg 11%
    13:00 +40°C° 0 mm 1 mps 717 mmHg 9%
    14:00 +41°C° 0 mm 1 mps 716 mmHg 8%
    15:00 +41°C° 0 mm 1 mps 716 mmHg 7%
    16:00 +42°C° 0 mm 1 mps 716 mmHg 6%
    17:00 +37°C° 0 mm 1 mps 715 mmHg 8%
    18:00 +33°C° 0 mm 1 mps 715 mmHg 11%
    19:00 +29°C° 0 mm 1 mps 715 mmHg 13%
    20:00 +29°C° 0 mm 1 mps 715 mmHg 13%
    21:00 +28°C° 0 mm 1 mps 715 mmHg 14%
    22:00 +27°C° 0 mm 1 mps 716 mmHg 14%
    23:00 +28°C° 0 mm 2 mps 716 mmHg 16%

    26 September, Thursday

    Time Temperature Precipitation Wind Pressure Humidity
    00:00 +28°C° 0 mm 3 mps 716 mmHg 19%
    01:00 +29°C° 0 mm 4 mps 716 mmHg 21%
    02:00 +28°C° 0 mm 4 mps 716 mmHg 23%
    03:00 +28°C° 0 mm 4 mps 716 mmHg 25%
    04:00 +27°C° 0 mm 4 mps 716 mmHg 27%
    05:00 +28°C° 0 mm 4 mps 717 mmHg 26%
    06:00 +28°C° 0 mm 3 mps 717 mmHg 25%
    07:00 +29°C° 0 mm 3 mps 717 mmHg 24%
    08:00 +31°C° 0 mm 3 mps 718 mmHg 21%
    09:00 +35°C° 0 mm 3 mps 718 mmHg 17%
    10:00 +38°C° 0 mm 3 mps 719 mmHg 13%
    11:00 +40°C° 0 mm 3 mps 718 mmHg 11%
    12:00 +42°C° 0 mm 2 mps 718 mmHg 10%
    13:00 +43°C° 0 mm 2 mps 717 mmHg 8%
    14:00 +45°C° 0 mm 2 mps 717 mmHg 7%
    15:00 +45°C° 0 mm 2 mps 716 mmHg 7%
    16:00 +44°C° 0 mm 1 mps 716 mmHg 6%
    17:00 +40°C° 0 mm 1 mps 715 mmHg 8%
    18:00 +36°C° 0 mm 1 mps 715 mmHg 9%
    19:00 +32°C° 0 mm 1 mps 715 mmHg 11%
    20:00 +32°C° 0 mm 2 mps 715 mmHg 11%
    21:00 +32°C° 0 mm 2 mps 715 mmHg 11%
    22:00 +34°C° 0 mm 2 mps 716 mmHg 11%
    23:00 +31°C° 0 mm 2 mps 715 mmHg 12%

    27 September, Friday

    Time Temperature Precipitation Wind Pressure Humidity
    00:00 +30°C° 0 mm 2 mps 715 mmHg 14%
    01:00 +29°C° 0 mm 2 mps 715 mmHg 16%
    02:00 +29°C° 0 mm 2 mps 715 mmHg 16%
    03:00 +29°C° 0 mm 2 mps 715 mmHg 15%
    04:00 +29°C° 0 mm 3 mps 715 mmHg 15%
    05:00 +30°C° 0 mm 3 mps 716 mmHg 14%
    06:00 +31°C° 0 mm 3 mps 716 mmHg 14%
    07:00 +33°C° 0 mm 3 mps 717 mmHg 13%
    08:00 +36°C° 0 mm 4 mps 717 mmHg 12%
    09:00 +39°C° 0 mm 5 mps 717 mmHg 10%
    10:00 +42°C° 0 mm 6 mps 718 mmHg 8%
    11:00 +45°C° 0 mm 6 mps 717 mmHg 7%
    12:00 +46°C° 0 mm 5 mps 717 mmHg 6%
    13:00 +48°C° 0 mm 5 mps 716 mmHg 5%
    14:00 +48°C° 0 mm 5 mps 716 mmHg 5%
    15:00 +48°C° 0 mm 5 mps 715 mmHg 5%
    16:00 +48°C° 0 mm 5 mps 715 mmHg 5%
    17:00 +43°C° 0 mm 4 mps 714 mmHg 7%
    18:00 +37°C° 0 mm 2 mps 714 mmHg 9%
    19:00 +32°C° 0 mm 1 mps 713 mmHg 10%
    20:00 +34°C° 0 mm 2 mps 714 mmHg 10%
    21:00 +34°C° 0 mm 3 mps 714 mmHg 10%
    22:00 +35°C° 0 mm 4 mps 714 mmHg 10%
    23:00 +34°C° 0 mm 4 mps 714 mmHg 13%
    Show more